Location: Drocourt
(49.0571°N, 1.7669°E)
Time: 23:53:25
(UTC+00:00)

Cosmos 1709 Rocket - Pass Details

Date: 09 February 2023
Orbit: 948 x 1001 km, 82.9° (Epoch: 01 April)

Event Time Altitude Azimuth Distance (km) Brightness Sun altitude
Rises 18:31:54 0° 351° (N) 3,649 7.1 -15.0°
Reaches altitude 10° 18:34:26 10° 354° (N) 2,694 6.3 -15.4°
Maximum altitude 18:40:35 72° 79° (E) 1,000 3.8 -16.4°
Drops below altitude 10° 18:46:39 10° 164° (SSE) 2,665 6.1 -17.4°
Sets 18:49:08 0° 166° (SSE) 3,607 6.9 -17.8°
